Gulfport, MS

7:33 AM CDT on September 20, 2017 (GMT -0500)
Gulfport-Biloxi Regional

Weather History for KGPT - November, 2013

Change the Weather History Date:

Friday, November 1, 2013

  Actual Average Record
Temperature  
Mean Temperature 68 °F -  
Max Temperature 80 °F 75 °F 84 °F (1950)
Min Temperature 57 °F 57 °F 31 °F (1993)
Cooling Degree Days 3    
Growing Degree Days 18 (Base 50)    
Moisture  
Dew Point 64 °F    
Average Humidity 83    
Maximum Humidity 94    
Minimum Humidity 62    
Precipitation  
Precipitation 0.02 in - - ()
Sea Level Pressure  
Sea Level Pressure 29.85 in    
Wind  
Wind Speed 4 mph (NW)    
Max Wind Speed 18 mph    
Max Gust Speed 25 mph    
Visibility 10 miles    
Events Rain    
Averages and records for this station are not official NWS values.
T = Trace of Precipitation, MM = Missing Value Source: NWS Daily Summary

Daily Weather History Graph

Daily Weather History Graph

Search for Another Location

Airport or City:

Trip Planner

Search our weather history database for the weather conditions in past years. The results will help you decide how hot, cold, wet, or windy it might be!

Date:

Astronomy

Nov. 01, 2013 Rise Set
Actual Time 7:10 AM CDT 6:08 PM CDT
Civil Twilight 6:46 AM CDT 6:33 PM CDT
Nautical Twilight 6:17 AM CDT 7:01 PM CDT
Astronomical Twilight 5:49 AM CDT 7:29 PM CDT
Moon 5:10 AM CDT (11/1) 4:55 PM CDT (11/1)
Length of Visible Light 11h 47m
Length of Day
10h 57m
Waning Crescent, 4% of the Moon is Illuminated
Nov 1
Waning Crescent
Nov 3
New
Nov 9
First Quarter
Nov 17
Full
Nov 25
Last Quarter

Hourly Weather History & Observations

Time (CDT) Temp. Dew Point Humidity Pressure Visibility Wind Dir Wind Speed Gust Speed Precip Events Conditions
12:03 AM 71.6 °F 69.8 °F 94% 29.85 in 10.0 mi Calm Calm - N/A   Overcast
12:39 AM 71.6 °F 69.8 °F 94% 29.84 in 10.0 mi Calm Calm - N/A   Mostly Cloudy
12:53 AM 72.0 °F 70.0 °F 93% 29.84 in 10.0 mi Calm Calm - N/A   Overcast
1:53 AM 73.0 °F 70.0 °F 90% 29.83 in 10.0 mi Calm Calm - N/A   Mostly Cloudy
2:53 AM 73.0 °F 70.0 °F 90% 29.82 in 10.0 mi West 3.5 mph - N/A   Overcast
3:12 AM 73.4 °F 69.8 °F 88% 29.82 in 10.0 mi WNW 3.5 mph - N/A   Overcast
3:53 AM 72.0 °F 70.0 °F 93% 29.81 in 7.0 mi WNW 3.5 mph - 0.00 in Rain Light Rain
4:31 AM 71.6 °F 69.8 °F 94% 29.81 in 10.0 mi WNW 3.5 mph - 0.00 in   Overcast
4:53 AM 71.1 °F 69.1 °F 93% 29.81 in 8.0 mi NW 4.6 mph - 0.01 in Rain Light Rain
5:16 AM 71.6 °F 69.8 °F 94% 29.81 in 10.0 mi NW 4.6 mph - 0.00 in   Overcast
5:24 AM 69.8 °F 66.2 °F 88% 29.82 in 5.0 mi NNW 18.4 mph 25.3 mph 0.00 in Rain Light Rain
5:41 AM 66.2 °F 64.4 °F 94% 29.83 in 7.0 mi NNW 9.2 mph - 0.00 in   Overcast
5:53 AM 66.9 °F 64.9 °F 93% 29.83 in 8.0 mi NNW 6.9 mph - 0.00 in Rain Light Rain
6:53 AM 66.9 °F 64.0 °F 90% 29.85 in 10.0 mi NW 8.1 mph - 0.00 in   Overcast
7:32 AM 66.2 °F 62.6 °F 88% 29.86 in 10.0 mi NNW 10.4 mph - N/A   Overcast
7:53 AM 66.0 °F 62.1 °F 87% 29.86 in 10.0 mi NNW 9.2 mph - N/A   Overcast
8:53 AM 66.9 °F 63.0 °F 87% 29.88 in 10.0 mi NNW 8.1 mph - 0.01 in   Overcast
9:53 AM 68.0 °F 62.1 °F 81% 29.88 in 10.0 mi North 5.8 mph - N/A   Overcast
10:53 AM 71.1 °F 62.1 °F 73% 29.88 in 10.0 mi North 4.6 mph - N/A   Scattered Clouds
11:53 AM 73.9 °F 60.1 °F 62% 29.88 in 10.0 mi North 4.6 mph - N/A   Mostly Cloudy
12:53 PM 73.9 °F 61.0 °F 64% 29.86 in 10.0 mi Calm Calm - N/A   Partly Cloudy
1:53 PM 75.9 °F 64.0 °F 67% 29.83 in 10.0 mi Variable 3.5 mph - N/A   Clear
2:53 PM 75.9 °F 64.0 °F 67% 29.80 in 10.0 mi SSW 5.8 mph - N/A   Clear
3:53 PM 77.0 °F 63.0 °F 62% 29.80 in 10.0 mi West 5.8 mph - N/A   Clear
4:53 PM 73.9 °F 63.0 °F 68% 29.81 in 10.0 mi SW 5.8 mph - N/A   Clear
5:53 PM 72.0 °F 64.0 °F 76% 29.82 in 10.0 mi Calm Calm - N/A   Clear
6:53 PM 68.0 °F 59.0 °F 73% 29.85 in 10.0 mi WNW 3.5 mph - N/A   Clear
7:53 PM 64.0 °F 59.0 °F 84% 29.88 in 10.0 mi Calm Calm - N/A   Clear
8:53 PM 63.0 °F 55.0 °F 75% 29.89 in 10.0 mi NW 5.8 mph - N/A   Clear
9:53 PM 62.1 °F 55.0 °F 78% 29.91 in 10.0 mi NW 3.5 mph - N/A   Clear
10:53 PM 59.0 °F 55.0 °F 87% 29.93 in 10.0 mi Calm Calm - N/A   Clear
11:53 PM 57.9 °F 53.1 °F 84% 29.93 in 10.0 mi WNW 4.6 mph - N/A   Clear